Time,TemperatureF,DewpointF,PressureIn,WindDirection,WindDirectionDegrees,WindSpeedMPH,WindSpeedGustMPH,Humidity,HourlyPrecipIn,Conditions,Clouds,dailyrainin,SoftwareType,DateUTC
2013-01-18 00:00:00,24.1,13.7,29.79,North,0,0.0,0.0,64,0.00,,,0.00,WUHU216HW,2013-01-18 05:00:00,
2013-01-18 00:01:00,24.1,13.7,29.79,North,0,0.0,0.0,64,0.00,,,0.00,WUHU216HW,2013-01-18 05:01:00,
2013-01-18 00:02:00,24.1,13.7,29.79,North,0,0.0,0.0,64,0.00,,,0.00,WUHU216HW,2013-01-18 05:02:00,
2013-01-18 00:04:00,23.9,12.8,29.80,North,0,0.0,0.0,62,0.00,,,0.00,WUHU216HW,2013-01-18 05:04:00,
2013-01-18 00:10:00,23.8,13.0,29.81,North,0,0.0,0.0,63,0.00,,,0.00,WUHU216HW,2013-01-18 05:10:00,
2013-01-18 00:15:00,23.8,13.0,29.82,North,0,0.0,0.0,63,0.00,,,0.00,WUHU216HW,2013-01-18 05:15:00,
2013-01-18 00:20:00,23.8,13.3,29.83,North,0,0.0,0.0,64,0.00,,,0.00,WUHU216HW,2013-01-18 05:20:00,
2013-01-18 00:25:00,23.8,13.3,29.83,North,0,0.0,0.0,64,0.00,,,0.00,WUHU216HW,2013-01-18 05:25:00,
2013-01-18 00:30:00,23.6,12.8,29.83,North,0,0.0,0.0,63,0.00,,,0.00,WUHU216HW,2013-01-18 05:30:00,
2013-01-18 00:35:00,23.4,12.6,29.83,North,0,0.0,0.0,63,0.00,,,0.00,WUHU216HW,2013-01-18 05:35:00,
2013-01-18 00:40:00,23.2,12.4,29.84,North,0,0.0,0.0,63,0.00,,,0.00,WUHU216HW,2013-01-18 05:40:00,
2013-01-18 00:45:00,23.0,12.2,29.84,North,0,0.0,0.0,63,0.00,,,0.00,WUHU216HW,2013-01-18 05:45:00,
2013-01-18 00:50:00,23.0,12.2,29.82,North,0,0.0,0.0,63,0.00,,,0.00,WUHU216HW,2013-01-18 05:50:00,
2013-01-18 00:55:00,22.7,11.5,29.82,North,0,0.0,0.0,62,0.00,,,0.00,WUHU216HW,2013-01-18 05:55:00,
2013-01-18 01:00:00,22.5,11.3,29.82,North,0,0.0,0.0,62,0.00,,,0.00,WUHU216HW,2013-01-18 06:00:00,
2013-01-18 01:05:00,22.3,10.9,29.82,North,0,0.0,0.0,61,0.00,,,0.00,WUHU216HW,2013-01-18 06:05:00,
2013-01-18 01:10:00,22.1,10.4,29.82,North,0,0.0,0.0,60,0.00,,,0.00,WUHU216HW,2013-01-18 06:10:00,
2013-01-18 01:15:00,22.0,10.2,29.81,North,0,0.0,0.0,60,0.00,,,0.00,WUHU216HW,2013-01-18 06:15:00,
2013-01-18 01:21:00,22.0,10.2,29.82,North,0,0.0,0.0,60,0.00,,,0.00,WUHU216HW,2013-01-18 06:21:00,
2013-01-18 01:26:00,21.6,9.9,29.83,North,0,0.0,0.0,60,0.00,,,0.00,WUHU216HW,2013-01-18 06:26:00,
2013-01-18 01:31:00,21.6,9.9,29.81,North,0,0.0,0.0,60,0.00,,,0.00,WUHU216HW,2013-01-18 06:31:00,
2013-01-18 01:36:00,21.4,9.3,29.81,North,0,0.0,0.0,59,0.00,,,0.00,WUHU216HW,2013-01-18 06:36:00,
2013-01-18 01:41:00,21.2,9.5,29.81,North,0,0.0,0.0,60,0.00,,,0.00,WUHU216HW,2013-01-18 06:41:00,
2013-01-18 01:46:00,20.9,7.9,29.82,North,0,0.0,0.0,57,0.00,,,0.00,WUHU216HW,2013-01-18 06:46:00,
2013-01-18 01:51:00,20.7,7.7,29.84,North,0,0.0,0.0,57,0.00,,,0.00,WUHU216HW,2013-01-18 06:51:00,
2013-01-18 01:56:00,20.5,7.6,29.85,North,0,0.0,0.0,57,0.00,,,0.00,WUHU216HW,2013-01-18 06:56:00,
2013-01-18 02:01:00,20.5,7.6,29.85,North,0,0.0,0.0,57,0.00,,,0.00,WUHU216HW,2013-01-18 07:01:00,
2013-01-18 02:06:00,20.5,7.6,29.85,North,0,0.0,0.0,57,0.00,,,0.00,WUHU216HW,2013-01-18 07:06:00,
2013-01-18 02:11:00,20.0,7.1,29.86,North,0,0.0,0.0,57,0.00,,,0.00,WUHU216HW,2013-01-18 07:11:00,
2013-01-18 02:16:00,19.8,6.5,29.86,North,0,0.0,0.0,56,0.00,,,0.00,WUHU216HW,2013-01-18 07:16:00,
2013-01-18 02:21:00,19.8,6.5,29.86,North,0,0.0,0.0,56,0.00,,,0.00,WUHU216HW,2013-01-18 07:21:00,
2013-01-18 02:37:00,19.3,5.6,29.88,North,0,0.0,0.0,55,0.00,,,0.00,WUHU216HW,2013-01-18 07:37:00,
2013-01-18 02:42:00,19.1,5.9,29.86,North,0,0.0,0.0,56,0.00,,,0.00,WUHU216HW,2013-01-18 07:42:00,
2013-01-18 02:47:00,19.1,5.4,29.87,North,0,0.0,0.0,55,0.00,,,0.00,WUHU216HW,2013-01-18 07:47:00,
2013-01-18 02:52:00,18.9,5.3,29.89,North,0,0.0,0.0,55,0.00,,,0.00,WUHU216HW,2013-01-18 07:52:00,
2013-01-18 02:57:00,18.7,5.1,29.88,North,0,0.0,0.0,55,0.00,,,0.00,WUHU216HW,2013-01-18 07:57:00,
2013-01-18 03:02:00,18.5,5.0,29.88,North,0,0.0,0.0,55,0.00,,,0.00,WUHU216HW,2013-01-18 08:02:00,
2013-01-18 03:07:00,18.4,4.8,29.87,North,0,0.0,0.0,55,0.00,,,0.00,WUHU216HW,2013-01-18 08:07:00,
2013-01-18 03:12:00,18.4,4.4,29.87,North,0,0.0,0.0,54,0.00,,,0.00,WUHU216HW,2013-01-18 08:12:00,
2013-01-18 03:17:00,18.2,5.1,29.87,North,0,0.0,0.0,56,0.00,,,0.00,WUHU216HW,2013-01-18 08:17:00,
2013-01-18 03:22:00,18.0,4.9,29.87,North,0,0.0,0.0,56,0.00,,,0.00,WUHU216HW,2013-01-18 08:22:00,
2013-01-18 03:27:00,18.0,4.9,29.87,North,0,0.0,0.0,56,0.00,,,0.00,WUHU216HW,2013-01-18 08:27:00,
2013-01-18 03:33:00,18.0,5.2,29.87,North,0,0.0,0.0,57,0.00,,,0.00,WUHU216HW,2013-01-18 08:33:00,
2013-01-18 03:38:00,18.0,5.2,29.87,North,0,0.0,0.0,57,0.00,,,0.00,WUHU216HW,2013-01-18 08:38:00,
2013-01-18 04:00:00,17.3,5.0,29.88,North,0,0.0,0.0,58,0.00,,,0.00,WUHU216HW,2013-01-18 09:00:00,
2013-01-18 04:05:00,17.1,4.8,29.87,North,0,0.0,0.0,58,0.00,,,0.00,WUHU216HW,2013-01-18 09:05:00,
2013-01-18 04:10:00,16.9,5.1,29.87,North,0,0.0,0.0,59,0.00,,,0.00,WUHU216HW,2013-01-18 09:10:00,
2013-01-18 04:15:00,16.9,4.6,29.87,North,0,0.0,0.0,58,0.00,,,0.00,WUHU216HW,2013-01-18 09:15:00,
2013-01-18 04:20:00,16.7,4.9,29.88,North,0,0.0,0.0,59,0.00,,,0.00,WUHU216HW,2013-01-18 09:20:00,
2013-01-18 04:25:00,16.7,5.2,29.87,North,0,0.0,0.0,60,0.00,,,0.00,WUHU216HW,2013-01-18 09:25:00,
2013-01-18 04:30:00,16.7,5.2,29.88,North,0,0.0,0.0,60,0.00,,,0.00,WUHU216HW,2013-01-18 09:30:00,
2013-01-18 04:35:00,16.6,5.0,29.88,North,0,0.0,0.0,60,0.00,,,0.00,WUHU216HW,2013-01-18 09:35:00,
2013-01-18 04:40:00,16.6,5.0,29.88,North,0,0.0,0.0,60,0.00,,,0.00,WUHU216HW,2013-01-18 09:40:00,
2013-01-18 05:00:00,15.7,4.5,29.90,North,0,0.0,0.0,61,0.00,,,0.00,WUHU216HW,2013-01-18 10:00:00,
2013-01-18 05:05:00,15.5,4.3,29.90,North,0,0.0,0.0,61,0.00,,,0.00,WUHU216HW,2013-01-18 10:05:00,
2013-01-18 05:10:00,15.5,4.3,29.90,North,0,0.0,0.0,61,0.00,,,0.00,WUHU216HW,2013-01-18 10:10:00,
2013-01-18 05:15:00,15.1,4.1,29.91,North,0,0.0,0.0,61,0.00,,,0.00,WUHU216HW,2013-01-18 10:15:00,
2013-01-18 05:20:00,15.1,3.7,29.91,North,0,0.0,0.0,60,0.00,,,0.00,WUHU216HW,2013-01-18 10:20:00,
2013-01-18 05:25:00,14.9,3.5,29.91,North,0,0.0,0.0,60,0.00,,,0.00,WUHU216HW,2013-01-18 10:25:00,
2013-01-18 05:30:00,14.8,3.3,29.91,North,0,0.0,0.0,60,0.00,,,0.00,WUHU216HW,2013-01-18 10:30:00,
2013-01-18 05:35:00,14.8,3.7,29.91,North,0,0.0,0.0,61,0.00,,,0.00,WUHU216HW,2013-01-18 10:35:00,
2013-01-18 05:40:00,14.6,3.5,29.91,North,0,0.0,0.0,61,0.00,,,0.00,WUHU216HW,2013-01-18 10:40:00,
2013-01-18 05:45:00,14.6,3.5,29.92,North,0,0.0,0.0,61,0.00,,,0.00,WUHU216HW,2013-01-18 10:45:00,
2013-01-18 05:50:00,14.4,3.7,29.92,North,0,0.0,0.0,62,0.00,,,0.00,WUHU216HW,2013-01-18 10:50:00,
2013-01-18 05:55:00,14.4,3.7,29.93,North,0,0.0,0.0,62,0.00,,,0.00,WUHU216HW,2013-01-18 10:55:00,
2013-01-18 06:00:00,14.0,3.4,29.94,North,0,0.0,0.0,62,0.00,,,0.00,WUHU216HW,2013-01-18 11:00:00,
2013-01-18 06:05:00,14.0,3.4,29.95,North,0,0.0,0.0,62,0.00,,,0.00,WUHU216HW,2013-01-18 11:05:00,
2013-01-18 06:10:00,14.0,3.7,29.95,North,0,0.0,0.0,63,0.00,,,0.00,WUHU216HW,2013-01-18 11:10:00,
2013-01-18 06:15:00,13.9,3.5,29.96,North,0,0.0,0.0,63,0.00,,,0.00,WUHU216HW,2013-01-18 11:15:00,
2013-01-18 06:20:00,13.9,3.5,29.96,North,0,0.0,0.0,63,0.00,,,0.00,WUHU216HW,2013-01-18 11:20:00,
2013-01-18 06:25:00,13.7,3.7,29.97,North,0,0.0,0.0,64,0.00,,,0.00,WUHU216HW,2013-01-18 11:25:00,
2013-01-18 06:30:00,13.7,3.7,29.97,North,0,0.0,0.0,64,0.00,,,0.00,WUHU216HW,2013-01-18 11:30:00,
2013-01-18 06:35:00,13.5,3.5,29.97,North,0,0.0,0.0,64,0.00,,,0.00,WUHU216HW,2013-01-18 11:35:00,
2013-01-18 06:41:00,13.5,3.5,29.97,North,0,0.0,0.0,64,0.00,,,0.00,WUHU216HW,2013-01-18 11:41:00,
2013-01-18 07:00:00,13.0,3.3,30.00,North,0,0.0,0.0,65,0.00,,,0.00,WUHU216HW,2013-01-18 12:00:00,
2013-01-18 07:05:00,13.0,3.3,30.00,North,0,0.0,0.0,65,0.00,,,0.00,WUHU216HW,2013-01-18 12:05:00,
2013-01-18 08:00:00,11.2,1.6,30.03,North,0,0.0,0.0,65,0.00,,,0.00,WUHU216HW,2013-01-18 13:00:00,
2013-01-18 08:05:00,11.2,1.6,30.03,North,0,0.0,0.0,65,0.00,,,0.00,WUHU216HW,2013-01-18 13:05:00,
2013-01-18 08:10:00,11.3,2.1,30.04,North,0,0.0,0.0,66,0.00,,,0.00,WUHU216HW,2013-01-18 13:10:00,
2013-01-18 08:15:00,11.5,2.3,30.04,North,0,0.0,0.0,66,0.00,,,0.00,WUHU216HW,2013-01-18 13:15:00,
2013-01-18 08:20:00,11.5,2.3,30.04,North,0,0.0,0.0,66,0.00,,,0.00,WUHU216HW,2013-01-18 13:20:00,
2013-01-18 08:25:00,11.5,2.3,30.05,North,0,0.0,0.0,66,0.00,,,0.00,WUHU216HW,2013-01-18 13:25:00,
2013-01-18 08:30:00,11.5,2.3,30.05,North,0,0.0,0.0,66,0.00,,,0.00,WUHU216HW,2013-01-18 13:30:00,
2013-01-18 08:35:00,11.7,2.4,30.05,North,0,0.0,0.0,66,0.00,,,0.00,WUHU216HW,2013-01-18 13:35:00,
2013-01-18 08:40:00,11.7,2.4,30.05,North,0,0.0,0.0,66,0.00,,,0.00,WUHU216HW,2013-01-18 13:40:00,
2013-01-18 09:00:00,15.5,5.4,30.06,North,0,0.0,0.0,64,0.00,,,0.00,WUHU216HW,2013-01-18 14:00:00,
2013-01-18 09:05:00,16.4,5.6,30.06,North,0,0.0,0.0,62,0.00,,,0.00,WUHU216HW,2013-01-18 14:05:00,
2013-01-18 09:10:00,17.8,6.7,30.06,North,0,0.0,0.0,61,0.00,,,0.00,WUHU216HW,2013-01-18 14:10:00,
2013-01-18 09:15:00,19.1,6.7,30.06,North,0,0.0,0.0,58,0.00,,,0.00,WUHU216HW,2013-01-18 14:15:00,
2013-01-18 09:20:00,20.3,7.4,30.06,North,0,0.0,0.0,57,0.00,,,0.00,WUHU216HW,2013-01-18 14:20:00,
2013-01-18 09:25:00,21.6,8.2,30.07,North,0,0.0,0.0,56,0.00,,,0.00,WUHU216HW,2013-01-18 14:25:00,
2013-01-18 09:30:00,22.7,9.3,30.07,North,0,0.0,0.0,56,0.00,,,0.00,WUHU216HW,2013-01-18 14:30:00,
2013-01-18 09:35:00,22.9,8.7,30.07,North,0,0.0,0.0,54,0.00,,,0.00,WUHU216HW,2013-01-18 14:35:00,
2013-01-18 09:40:00,22.9,8.7,30.07,North,0,0.0,0.0,54,0.00,,,0.00,WUHU216HW,2013-01-18 14:40:00,
2013-01-18 10:00:00,20.5,4.3,30.07,North,0,0.0,0.0,49,0.00,,,0.00,WUHU216HW,2013-01-18 15:00:00,
2013-01-18 10:05:00,19.1,2.5,30.07,North,0,0.0,0.0,48,0.00,,,0.00,WUHU216HW,2013-01-18 15:05:00,
2013-01-18 10:10:00,19.4,4.6,30.07,North,0,0.0,0.0,52,0.00,,,0.00,WUHU216HW,2013-01-18 15:10:00,
2013-01-18 10:15:00,20.0,4.7,30.07,North,0,0.0,0.0,51,0.00,,,0.00,WUHU216HW,2013-01-18 15:15:00,
2013-01-18 10:20:00,19.8,4.5,30.07,North,0,0.0,0.0,51,0.00,,,0.00,WUHU216HW,2013-01-18 15:20:00,
2013-01-18 10:25:00,20.0,5.0,30.07,North,0,0.0,0.0,52,0.00,,,0.00,WUHU216HW,2013-01-18 15:25:00,
2013-01-18 10:30:00,20.2,4.9,30.07,North,0,0.0,0.0,51,0.00,,,0.00,WUHU216HW,2013-01-18 15:30:00,
2013-01-18 10:35:00,20.3,5.4,30.07,North,0,0.0,0.0,52,0.00,,,0.00,WUHU216HW,2013-01-18 15:35:00,
2013-01-18 10:40:00,20.3,5.4,30.07,North,0,0.0,0.0,52,0.00,,,0.00,WUHU216HW,2013-01-18 15:40:00,
2013-01-18 11:00:00,19.4,3.8,30.07,North,0,0.0,0.0,50,0.00,,,0.00,WUHU216HW,2013-01-18 16:00:00,
2013-01-18 11:05:00,19.6,4.0,30.07,North,0,0.0,0.0,50,0.00,,,0.00,WUHU216HW,2013-01-18 16:05:00,
2013-01-18 11:10:00,19.8,4.2,30.06,North,0,0.0,0.0,50,0.00,,,0.00,WUHU216HW,2013-01-18 16:10:00,
2013-01-18 11:15:00,20.0,3.8,30.06,North,0,0.0,0.0,49,0.00,,,0.00,WUHU216HW,2013-01-18 16:15:00,
2013-01-18 11:20:00,20.2,4.4,30.06,North,0,0.0,0.0,50,0.00,,,0.00,WUHU216HW,2013-01-18 16:20:00,
2013-01-18 11:25:00,20.5,4.8,30.05,North,0,0.0,0.0,50,0.00,,,0.00,WUHU216HW,2013-01-18 16:25:00,
2013-01-18 11:30:00,20.5,4.3,30.05,North,0,0.0,0.0,49,0.00,,,0.00,WUHU216HW,2013-01-18 16:30:00,
2013-01-18 11:35:00,20.7,4.0,30.05,North,0,0.0,0.0,48,0.00,,,0.00,WUHU216HW,2013-01-18 16:35:00,
2013-01-18 11:40:00,20.7,4.0,30.05,North,0,0.0,0.0,48,0.00,,,0.00,WUHU216HW,2013-01-18 16:40:00,
2013-01-18 12:00:00,23.8,6.0,30.05,North,0,0.0,0.0,46,0.00,,,0.00,WUHU216HW,2013-01-18 17:00:00,
2013-01-18 12:05:00,23.4,5.1,30.05,North,0,0.0,0.0,45,0.00,,,0.00,WUHU216HW,2013-01-18 17:05:00,
2013-01-18 12:10:00,23.6,5.8,30.05,North,0,0.0,0.0,46,0.00,,,0.00,WUHU216HW,2013-01-18 17:10:00,
2013-01-18 12:15:00,23.9,5.6,30.05,North,0,0.0,0.0,45,0.00,,,0.00,WUHU216HW,2013-01-18 17:15:00,
2013-01-18 12:20:00,24.1,6.2,30.05,North,0,0.0,0.0,46,0.00,,,0.00,WUHU216HW,2013-01-18 17:20:00,
2013-01-18 12:25:00,24.1,5.8,30.05,North,0,0.0,0.0,45,0.00,,,0.00,WUHU216HW,2013-01-18 17:25:00,
2013-01-18 12:30:00,23.6,4.8,30.05,North,0,0.0,0.0,44,0.00,,,0.00,WUHU216HW,2013-01-18 17:30:00,
2013-01-18 12:35:00,23.4,4.6,30.05,North,0,0.0,0.0,44,0.00,,,0.00,WUHU216HW,2013-01-18 17:35:00,
2013-01-18 12:40:00,23.4,4.6,30.05,North,0,0.0,0.0,44,0.00,,,0.00,WUHU216HW,2013-01-18 17:40:00,
2013-01-18 13:00:00,24.7,4.8,30.06,North,0,0.0,0.0,42,0.00,,,0.00,WUHU216HW,2013-01-18 18:00:00,
2013-01-18 13:05:00,24.7,5.8,30.06,North,0,0.0,0.0,44,0.00,,,0.00,WUHU216HW,2013-01-18 18:05:00,
2013-01-18 13:10:00,24.5,5.1,30.06,North,0,0.0,0.0,43,0.00,,,0.00,WUHU216HW,2013-01-18 18:10:00,
2013-01-18 13:15:00,25.0,6.6,30.06,North,0,0.0,0.0,45,0.00,,,0.00,WUHU216HW,2013-01-18 18:15:00,
2013-01-18 13:20:00,25.2,5.2,30.06,North,0,0.0,0.0,42,0.00,,,0.00,WUHU216HW,2013-01-18 18:20:00,
2013-01-18 13:25:00,24.8,5.4,30.06,North,0,0.0,0.0,43,0.00,,,0.00,WUHU216HW,2013-01-18 18:25:00,
2013-01-18 13:30:00,24.7,4.8,30.07,North,0,0.0,0.0,42,0.00,,,0.00,WUHU216HW,2013-01-18 18:30:00,
2013-01-18 13:35:00,24.8,4.4,30.06,North,0,0.0,0.0,41,0.00,,,0.00,WUHU216HW,2013-01-18 18:35:00,
2013-01-18 13:40:00,24.8,4.4,30.06,North,0,0.0,0.0,41,0.00,,,0.00,WUHU216HW,2013-01-18 18:40:00,
2013-01-18 14:00:00,25.0,4.6,30.07,North,0,0.0,0.0,41,0.00,,,0.00,WUHU216HW,2013-01-18 19:00:00,
2013-01-18 14:05:00,25.2,5.2,30.08,North,0,0.0,0.0,42,0.00,,,0.00,WUHU216HW,2013-01-18 19:05:00,
2013-01-18 14:10:00,25.6,6.0,30.08,North,0,0.0,0.0,43,0.00,,,0.00,WUHU216HW,2013-01-18 19:10:00,
2013-01-18 14:15:00,25.7,5.8,30.08,North,0,0.0,0.0,42,0.00,,,0.00,WUHU216HW,2013-01-18 19:15:00,
2013-01-18 14:20:00,26.1,5.6,30.08,North,0,0.0,0.0,41,0.00,,,0.00,WUHU216HW,2013-01-18 19:20:00,
2013-01-18 14:25:00,25.6,5.1,30.08,North,0,0.0,0.0,41,0.00,,,0.00,WUHU216HW,2013-01-18 19:25:00,
2013-01-18 14:30:00,25.6,5.6,30.08,North,0,0.0,0.0,42,0.00,,,0.00,WUHU216HW,2013-01-18 19:30:00,
2013-01-18 14:35:00,25.7,5.8,30.08,North,0,0.0,0.0,42,0.00,,,0.00,WUHU216HW,2013-01-18 19:35:00,
2013-01-18 14:40:00,25.7,5.8,30.08,North,0,0.0,0.0,42,0.00,,,0.00,WUHU216HW,2013-01-18 19:40:00,
2013-01-18 15:00:00,25.6,5.6,30.08,North,0,0.0,0.0,42,0.00,,,0.00,WUHU216HW,2013-01-18 20:00:00,
2013-01-18 15:05:00,25.4,6.0,30.08,North,0,0.0,0.0,43,0.00,,,0.00,WUHU216HW,2013-01-18 20:05:00,
2013-01-18 15:10:00,25.2,5.8,30.08,North,0,0.0,0.0,43,0.00,,,0.00,WUHU216HW,2013-01-18 20:10:00,
2013-01-18 15:15:00,24.7,4.3,30.08,North,0,0.0,0.0,41,0.00,,,0.00,WUHU216HW,2013-01-18 20:15:00,
2013-01-18 15:20:00,24.3,4.4,30.08,North,0,0.0,0.0,42,0.00,,,0.00,WUHU216HW,2013-01-18 20:20:00,
2013-01-18 15:25:00,24.1,4.8,30.08,North,0,0.0,0.0,43,0.00,,,0.00,WUHU216HW,2013-01-18 20:25:00,
2013-01-18 15:30:00,23.8,5.0,30.08,North,0,0.0,0.0,44,0.00,,,0.00,WUHU216HW,2013-01-18 20:30:00,
2013-01-18 15:35:00,23.6,4.3,30.08,North,0,0.0,0.0,43,0.00,,,0.00,WUHU216HW,2013-01-18 20:35:00,
2013-01-18 15:40:00,23.4,4.6,30.07,North,0,0.0,0.0,44,0.00,,,0.00,WUHU216HW,2013-01-18 20:40:00,
2013-01-18 15:46:00,23.0,4.3,30.07,North,0,0.0,0.0,44,0.00,,,0.00,WUHU216HW,2013-01-18 20:46:00,
2013-01-18 15:51:00,22.7,4.0,30.07,North,0,0.0,0.0,44,0.00,,,0.00,WUHU216HW,2013-01-18 20:51:00,
2013-01-18 15:56:00,22.5,3.8,30.08,North,0,0.0,0.0,44,0.00,,,0.00,WUHU216HW,2013-01-18 20:56:00,
2013-01-18 16:01:00,22.1,3.4,30.08,North,0,0.0,0.0,44,0.00,,,0.00,WUHU216HW,2013-01-18 21:01:00,
2013-01-18 16:06:00,22.0,3.2,30.08,North,0,0.0,0.0,44,0.00,,,0.00,WUHU216HW,2013-01-18 21:06:00,
2013-01-18 16:11:00,21.8,3.6,30.08,North,0,0.0,0.0,45,0.00,,,0.00,WUHU216HW,2013-01-18 21:11:00,
2013-01-18 16:16:00,21.6,3.4,30.08,North,0,0.0,0.0,45,0.00,,,0.00,WUHU216HW,2013-01-18 21:16:00,
2013-01-18 16:21:00,21.2,3.5,30.08,North,0,0.0,0.0,46,0.00,,,0.00,WUHU216HW,2013-01-18 21:21:00,
2013-01-18 16:26:00,21.1,3.3,30.08,North,0,0.0,0.0,46,0.00,,,0.00,WUHU216HW,2013-01-18 21:26:00,
2013-01-18 16:31:00,20.7,3.5,30.08,North,0,0.0,0.0,47,0.00,,,0.00,WUHU216HW,2013-01-18 21:31:00,
2013-01-18 16:36:00,20.7,3.1,30.08,North,0,0.0,0.0,46,0.00,,,0.00,WUHU216HW,2013-01-18 21:36:00,
2013-01-18 16:41:00,20.7,3.1,30.08,North,0,0.0,0.0,46,0.00,,,0.00,WUHU216HW,2013-01-18 21:41:00,
2013-01-18 17:00:00,18.7,2.7,30.09,North,0,0.0,0.0,49,0.00,,,0.00,WUHU216HW,2013-01-18 22:00:00,
2013-01-18 17:05:00,18.5,2.5,30.08,North,0,0.0,0.0,49,0.00,,,0.00,WUHU216HW,2013-01-18 22:05:00,
2013-01-18 17:10:00,18.4,2.8,30.09,North,0,0.0,0.0,50,0.00,,,0.00,WUHU216HW,2013-01-18 22:10:00,
2013-01-18 17:15:00,18.2,2.6,30.09,North,0,0.0,0.0,50,0.00,,,0.00,WUHU216HW,2013-01-18 22:15:00,
2013-01-18 17:20:00,18.0,2.9,30.10,North,0,0.0,0.0,51,0.00,,,0.00,WUHU216HW,2013-01-18 22:20:00,
2013-01-18 17:25:00,17.8,2.7,30.10,North,0,0.0,0.0,51,0.00,,,0.00,WUHU216HW,2013-01-18 22:25:00,
2013-01-18 17:30:00,17.8,2.7,30.10,North,0,0.0,0.0,51,0.00,,,0.00,WUHU216HW,2013-01-18 22:30:00,
2013-01-18 17:35:00,17.8,2.7,30.10,North,0,0.0,0.0,51,0.00,,,0.00,WUHU216HW,2013-01-18 22:35:00,
2013-01-18 17:40:00,17.8,2.7,30.10,North,0,0.0,0.0,51,0.00,,,0.00,WUHU216HW,2013-01-18 22:40:00,
2013-01-18 18:00:00,17.5,3.2,30.10,North,0,0.0,0.0,53,0.00,,,0.00,WUHU216HW,2013-01-18 23:00:00,
2013-01-18 18:05:00,17.3,3.0,30.10,North,0,0.0,0.0,53,0.00,,,0.00,WUHU216HW,2013-01-18 23:05:00,
2013-01-18 18:10:00,17.1,3.3,30.10,North,0,0.0,0.0,54,0.00,,,0.00,WUHU216HW,2013-01-18 23:10:00,
2013-01-18 18:15:00,16.9,3.1,30.11,North,0,0.0,0.0,54,0.00,,,0.00,WUHU216HW,2013-01-18 23:15:00,
2013-01-18 18:20:00,16.6,2.7,30.11,North,0,0.0,0.0,54,0.00,,,0.00,WUHU216HW,2013-01-18 23:20:00,
2013-01-18 18:25:00,16.0,2.3,30.12,North,0,0.0,0.0,54,0.00,,,0.00,WUHU216HW,2013-01-18 23:25:00,
2013-01-18 18:30:00,15.5,2.1,30.12,North,0,0.0,0.0,55,0.00,,,0.00,WUHU216HW,2013-01-18 23:30:00,
2013-01-18 18:35:00,15.1,2.2,30.12,North,0,0.0,0.0,56,0.00,,,0.00,WUHU216HW,2013-01-18 23:35:00,
2013-01-18 18:40:00,15.1,2.2,30.12,North,0,0.0,0.0,56,0.00,,,0.00,WUHU216HW,2013-01-18 23:40:00,
2013-01-18 19:00:00,14.2,2.1,30.13,North,0,0.0,0.0,58,0.00,,,0.00,WUHU216HW,2013-01-19 00:00:00,
2013-01-18 19:05:00,14.0,2.4,30.12,North,0,0.0,0.0,59,0.00,,,0.00,WUHU216HW,2013-01-19 00:05:00,
2013-01-18 19:10:00,14.0,2.4,30.12,North,0,0.0,0.0,59,0.00,,,0.00,WUHU216HW,2013-01-19 00:10:00,
2013-01-18 19:15:00,14.0,2.7,30.13,North,0,0.0,0.0,60,0.00,,,0.00,WUHU216HW,2013-01-19 00:15:00,
2013-01-18 19:20:00,13.9,2.5,30.13,North,0,0.0,0.0,60,0.00,,,0.00,WUHU216HW,2013-01-19 00:20:00,
2013-01-18 19:25:00,13.7,2.3,30.12,North,0,0.0,0.0,60,0.00,,,0.00,WUHU216HW,2013-01-19 00:25:00,
2013-01-18 19:30:00,13.9,2.5,30.12,North,0,0.0,0.0,60,0.00,,,0.00,WUHU216HW,2013-01-19 00:30:00,
2013-01-18 19:35:00,13.7,2.3,30.12,North,0,0.0,0.0,60,0.00,,,0.00,WUHU216HW,2013-01-19 00:35:00,
2013-01-18 19:40:00,13.7,2.3,30.12,North,0,0.0,0.0,60,0.00,,,0.00,WUHU216HW,2013-01-19 00:40:00,
2013-01-18 20:00:00,12.8,2.2,30.13,North,0,0.0,0.0,62,0.00,,,0.00,WUHU216HW,2013-01-19 01:00:00,
2013-01-18 20:05:00,12.8,2.4,30.12,North,0,0.0,0.0,63,0.00,,,0.00,WUHU216HW,2013-01-19 01:05:00,
2013-01-18 20:10:00,12.8,2.4,30.13,North,0,0.0,0.0,63,0.00,,,0.00,WUHU216HW,2013-01-19 01:10:00,
2013-01-18 20:15:00,12.6,2.3,30.13,North,0,0.0,0.0,63,0.00,,,0.00,WUHU216HW,2013-01-19 01:15:00,
2013-01-18 20:20:00,12.4,2.4,30.13,North,0,0.0,0.0,64,0.00,,,0.00,WUHU216HW,2013-01-19 01:20:00,
2013-01-18 20:25:00,12.2,2.3,30.13,North,0,0.0,0.0,64,0.00,,,0.00,WUHU216HW,2013-01-19 01:25:00,
2013-01-18 20:30:00,12.2,2.3,30.13,North,0,0.0,0.0,64,0.00,,,0.00,WUHU216HW,2013-01-19 01:30:00,
2013-01-18 20:35:00,12.1,2.4,30.13,North,0,0.0,0.0,65,0.00,,,0.00,WUHU216HW,2013-01-19 01:35:00,
2013-01-18 20:40:00,12.1,2.4,30.12,North,0,0.0,0.0,65,0.00,,,0.00,WUHU216HW,2013-01-19 01:40:00,
2013-01-18 20:45:00,11.9,1.9,30.13,North,0,0.0,0.0,64,0.00,,,0.00,WUHU216HW,2013-01-19 01:45:00,
2013-01-18 20:51:00,11.9,2.3,30.12,North,0,0.0,0.0,65,0.00,,,0.00,WUHU216HW,2013-01-19 01:51:00,
2013-01-18 20:56:00,11.7,2.1,30.12,North,0,0.0,0.0,65,0.00,,,0.00,WUHU216HW,2013-01-19 01:56:00,
2013-01-18 21:01:00,11.7,2.1,30.12,North,0,0.0,0.0,65,0.00,,,0.00,WUHU216HW,2013-01-19 02:01:00,
2013-01-18 21:06:00,11.7,2.1,30.12,North,0,0.0,0.0,65,0.00,,,0.00,WUHU216HW,2013-01-19 02:06:00,
2013-01-18 21:11:00,11.5,2.3,30.12,North,0,0.0,0.0,66,0.00,,,0.00,WUHU216HW,2013-01-19 02:11:00,
2013-01-18 21:16:00,11.3,2.1,30.12,North,0,0.0,0.0,66,0.00,,,0.00,WUHU216HW,2013-01-19 02:16:00,
2013-01-18 21:21:00,11.2,2.3,30.12,North,0,0.0,0.0,67,0.00,,,0.00,WUHU216HW,2013-01-19 02:21:00,
2013-01-18 21:26:00,11.0,2.1,30.13,North,0,0.0,0.0,67,0.00,,,0.00,WUHU216HW,2013-01-19 02:26:00,
2013-01-18 21:31:00,11.0,2.4,30.12,North,0,0.0,0.0,68,0.00,,,0.00,WUHU216HW,2013-01-19 02:31:00,
2013-01-18 21:36:00,11.0,2.1,30.12,North,0,0.0,0.0,67,0.00,,,0.00,WUHU216HW,2013-01-19 02:36:00,
2013-01-18 21:42:00,11.0,2.1,30.12,North,0,0.0,0.0,67,0.00,,,0.00,WUHU216HW,2013-01-19 02:42:00,
2013-01-18 22:00:00,10.8,2.3,30.10,North,0,0.0,0.0,68,0.00,,,0.00,WUHU216HW,2013-01-19 03:00:00,
2013-01-18 22:05:00,10.6,2.1,30.10,North,0,0.0,0.0,68,0.00,,,0.00,WUHU216HW,2013-01-19 03:05:00,
2013-01-18 22:10:00,10.6,2.3,30.10,North,0,0.0,0.0,69,0.00,,,0.00,WUHU216HW,2013-01-19 03:10:00,
2013-01-18 22:15:00,10.8,2.5,30.09,North,0,0.0,0.0,69,0.00,,,0.00,WUHU216HW,2013-01-19 03:15:00,
2013-01-18 22:20:00,10.8,2.9,30.09,North,0,0.0,0.0,70,0.00,,,0.00,WUHU216HW,2013-01-19 03:20:00,
2013-01-18 22:25:00,11.0,3.1,30.09,North,0,0.0,0.0,70,0.00,,,0.00,WUHU216HW,2013-01-19 03:25:00,
2013-01-18 22:30:00,11.2,3.5,30.09,North,0,0.0,0.0,71,0.00,,,0.00,WUHU216HW,2013-01-19 03:30:00,
2013-01-18 22:33:00,11.3,3.7,30.09,North,0,0.0,0.0,71,0.00,,,0.00,WUHU216HW,2013-01-19 03:33:00,
2013-01-18 22:35:00,11.3,3.7,30.09,North,0,0.0,0.0,71,0.00,,,0.00,WUHU216HW,2013-01-19 03:35:00,
2013-01-18 22:40:00,11.3,3.7,30.09,North,0,0.0,0.0,71,0.00,,,0.00,WUHU216HW,2013-01-19 03:40:00,
2013-01-18 23:00:00,12.1,4.7,30.08,North,0,0.0,0.0,72,0.00,,,0.00,WUHU216HW,2013-01-19 04:00:00,
2013-01-18 23:05:00,12.2,4.9,30.06,North,0,0.0,0.0,72,0.00,,,0.00,WUHU216HW,2013-01-19 04:05:00,
2013-01-18 23:10:00,12.4,5.0,30.06,North,0,0.0,0.0,72,0.00,,,0.00,WUHU216HW,2013-01-19 04:10:00,
2013-01-18 23:15:00,12.6,5.2,30.05,North,0,0.0,0.0,72,0.00,,,0.00,WUHU216HW,2013-01-19 04:15:00,
2013-01-18 23:20:00,12.6,5.6,30.05,North,0,0.0,0.0,73,0.00,,,0.00,WUHU216HW,2013-01-19 04:20:00,
2013-01-18 23:25:00,13.1,6.1,30.05,North,0,0.0,0.0,73,0.00,,,0.00,WUHU216HW,2013-01-19 04:25:00,
2013-01-18 23:30:00,13.3,6.3,30.05,North,0,0.0,0.0,73,0.00,,,0.00,WUHU216HW,2013-01-19 04:30:00,
2013-01-18 23:35:00,13.5,6.5,30.05,North,0,0.0,0.0,73,0.00,,,0.00,WUHU216HW,2013-01-19 04:35:00,
2013-01-18 23:40:00,13.5,6.5,30.05,North,0,0.0,0.0,73,0.00,,,0.00,WUHU216HW,2013-01-19 04:40:00,